SCP
-0 -0 0 0 0 0 0 0 0 0 0 -0 -0 -0 -0 -0 -0 -0 -0 -0 -0 -0 -0 -0 -0 -0 0 0 0 0 0 0 -0 -0 -0 0 0 0 0 0 0 0 0 0 0 0 0
-0 -0 -0 0 0 0 0 0 0 0 0 0 0 0 0 0 0 -0 -0 0 0 0 0 0 0 0 0 0 0 0 0 0 0 -0 0 0 0 0 -0 -0 -0 0 -0 0 0 0 0
-0 -0 -0 -0 -0 -0 -0 0 0 0 0 0 0 0 0 0 0 0 -0 -0 -0 0 0 0 0 0 0 0 0 0 0 0 0 0 0 0 0 -0 -0 0 -0 -0 -0 0 0 0 0
-0 -0 -0 -0 -0 -0 -0 -0 -0 -0 0 0 0 0 0 0 0 0 0 0 -0 0 0 0 0 0 0 0 0 0 0 0 0 0 0 0 0 0 0 -0 0 0 0 0 0 0 0
-0 -0 -0 -0 -0 -0 -0 -0 -0 -0 -0 -0 -0 -0 0 0 0 0 0 0 0 0 0 0 0 0 0 0 0 0 0 0 0 0 0 0 0 0 0 -0 -0 -0 0 0 -0 -0 0
-0 -0 -0 -0 -0 -0 -0 -0 -0 -0 -0 -0 -0 -0 -0 -0 -0 -0 0 0 0 0 0 0 0 0 0 0 0 0 0 0 0 0 0 0 0 0 0 -0 -0 0 -0 -0 -0 -0 -0
-0 -0 -0 -0 -0 -0 -0 -0 -0 -0 -0 -0 -0 -0 -0 -0 -0 -0 0 0 0 0 0 0 0 0 0 0 0 0 0 0 0 0 0 0 0 0 -0 0 0 -0 -0 0 -0 -0 -0
-0 -0 -0 -0 -0 -0 -0 -0 -0 -0 -0 -0 -0 -0 -0 -0 -0 -0 -0 0 0 0 0 0 0 0 0 0 0 0 0 0 0 0 0 0 0 0 0 0 0 -0 -0 -0 -0 0 -0
-0 -0 -0 -0 -0 -0 -0 -0 -0 -0 -0 -0 -0 -0 -0 -0 -0 0 0 0 0 0 0 0 0 0 0 0 0 0 0 0 0 0 0 0 0 0 0 0 0 -0 -0 -0 -0 0 -0
-0 -0 -0 -0 -0 -0 -0 -0 -0 -0 -0 -0 -0 -0 -0 -0 0 0 0 0 0 0 0 0 0 0 0 0 0 0 0 0 0 0 0 0 0 0 0 0 0 -0 -0 -0 0 0 0
-0 -0 -0 -0 -0 -0 -0 -0 -0 -0 -0 -0 -0 -0 -0 0 -0 0 0 0 0 0 0 0 0 0 0 0 0 0 0 0 0 0 0 0 0 0 0 0 0 0 0 0 0 0 0
-0 -0 -0 -0 -0 -0 -0 -0 -0 -0 -0 -0 -0 -0 -0 0 -0 -0 0 -0 -0 0 0 0 0 0 0 0 0 0 0 0 0 0 0 0 0 0 0 0 0 0 0 0 0 0 0
-0 -0 -0 -0 -0 -0 -0 -0 -0 -0 -0 -0 -0 0 0 0 -0 0 0 -0 0 0 0 0 0 0 0 0 0 0 0 0 0 0 0 0 0 0 0 0 0 0 0 0 0 0 0
-0 -0 -0 -0 -0 -0 -0 -0 -0 -0 -0 -0 -0 0 0 0 0 0 -0 0 0 0 0 0 0 0 0 0 0 0 0 0 0 0 0 0 0 0 0 0 0 0 0 0 0 0 0
-0 -0 -0 -0 -0 -0 -0 -0 -0 -0 -0 -0 -0 0 0 0 -0 -0 -0 0 0 0 0 0 0 0 0 0 0 0 0 0 0 0 0 0 0 0 0 0 0 0 0 0 0 0 0
-0 -0 -0 -0 -0 -0 -0 -0 -0 -0 -0 -0 0 0 0 0 0 0 0 0 0 0 0 0 0 0 0 0 0 0 0 0 0 0 0 0 0 0 0 0 0 0 0 0 0 0 0
-0 -0 -0 -0 -0 -0 -0 -0 -0 -0 -0 -0 0 0 0 0 0 0 0 0 0 0 0 0 0 0 0 0 0 0 0 0 0 0 0 0 0 0 0 0 0 0 0 0 0 0 0
-0 -0 -0 -0 -0 -0 -0 -0 -0 -0 -0 0 0 0 0 0 0 0 0 0 0 0 -0 0 0 0 0 0 0 0 0 0 0 0 0 0 0 0 0 0 0 0 0 0 0 0 0
-0 -0 -0 -0 -0 -0 -0 -0 -0 -0 -0 -0 0 0 0 0 0 0 0 0 0 0 -0 0 0 0 0 0 0 0 0 0 0 0 0 0 0 0 0 0 0 0 0 0 0 0 0
0 -0 -0 -0 -0 -0 -0 -0 -0 -0 -0 0 0 0 0 0 0 0 0 0 0 0 0 0 0 0 0 0 0 0 0 0 0 0 0 0 0 0 0 0 0 0 0 0 0 0 0
0 0 -0 -0 -0 -0 -0 -0 -0 -0 -0 0 0 0 0 0 0 0 0 0 0 0 0 0 0 0 0 0 0 0 0 0 0 0 0 0 0 0 0 0 0 0 0 0 0 0 0
0 0 0 0 -0 -0 -0 -0 -0 -0 0 0 0 0 0 0 0 0 0 0 0 0 0 0 0 0 0 0 0 0 0 0 0 0 0 0 0 0 0 0 0 0 0 0 0 0 0
0 0 0 0 0 0 0 -0 -0 -0 0 0 0 0 0 0 0 0 0 0 0 0 0 0 0 0 0 0 0 0 0 -0 0 0 0 0 0 0 0 0 0 0 0 0 0 0 0
0 0 0 0 0 0 0 0 0 -0 0 -0 0 0 0 0 0 0 0 0 0 0 0 0 0 0 0 0 -0 0 0 0 0 0 0 0 0 0 0 0 0 0 0 0 0 0 0
0 0 0 0 0 0 0 0 0 0 0 -0 0 0 0 0 0 0 0 0 0 0 0 0 0 0 0 0 0 0 0 0 0 0 0 0 0 0 0 0 0 0 0 0 0 0 0
0 0 0 0 0 0 0 0 0 0 0 0 0 -0 0 0 0 0 0 0 0 0 0 0 0 0 0 0 0 0 0 0 0 0 0 0 0 0 0 0 0 0 0 0 0 0 0
0 0 0 0 0 0 0 0 0 0 0 0 0 0 0 0 0 0 0 0 0 0 0 0 0 0 0 0 0 0 0 0 0 0 0 0 0 0 0 0 0 0 0 0 1 1 0
0 0 0 0 0 0 0 0 0 0 0 0 0 0 0 0 0 0 0 0 0 0 0 0 0 0 0 0 0 0 0 0 0 0 0 0 0 0 0 0 0 0 0 1 1 1 0
0 0 0 0 0 0 0 0 0 0 0 0 0 0 0 0 0 0 0 0 0 0 0 0 0 0 0 0 0 0 0 0 0 0 0 0 0 0 0 0 0 0 0 1 1 1 0
Wind_Speed_500mb
28 28 27 26 25 25 26 27 28 30 30 29 29 28 28 28 27 26 26 26 27 27 25 24 24 23 18 6 8 10 3 10 21 13 8 2 1 1 3 3 11 8 7 15 20 16 20
26 26 27 27 27 27 27 28 29 29 30 31 30 29 29 29 28 27 26 26 27 27 25 23 22 22 17 8 7 8 11 12 16 14 7 4 0 3 6 7 7 13 25 26 18 21 20
26 26 27 28 29 29 29 29 30 31 30 30 30 31 29 28 28 27 25 26 26 26 24 22 20 20 22 22 7 10 13 11 9 9 8 2 4 1 6 10 10 11 17 16 8 12 8
26 28 29 30 31 31 32 32 31 31 31 32 30 29 30 29 27 26 25 25 24 21 20 19 17 18 15 11 10 17 17 15 12 9 7 6 4 11 6 16 8 6 2 2 9 8 17
27 28 29 31 33 34 34 34 34 34 33 33 32 30 28 27 26 24 21 24 16 9 12 15 13 9 14 10 10 14 20 22 17 12 8 9 5 10 9 13 8 3 5 6 5 19 11
28 30 31 33 34 35 36 37 37 37 36 35 32 29 27 24 21 19 17 14 8 5 3 8 15 8 12 2 4 6 16 22 18 12 5 5 6 7 6 9 6 9 6 5 12 10 22
30 31 33 33 34 36 37 38 39 40 40 37 34 29 24 20 15 12 12 7 7 5 9 10 4 12 18 7 11 6 14 24 20 13 11 2 11 19 25 15 8 7 3 11 16 10 15
34 35 37 37 38 38 38 39 40 42 42 40 35 29 21 16 7 6 13 10 13 10 13 16 23 37 42 38 12 2 14 15 12 13 9 8 24 20 11 15 9 7 5 6 12 3 15
35 36 37 38 38 39 39 40 41 43 44 41 35 26 18 11 4 9 9 14 16 13 4 11 9 10 9 12 12 8 11 12 7 14 21 21 9 9 15 15 14 11 10 5 10 1 12
38 39 40 41 41 42 42 43 43 45 46 42 31 21 13 6 7 7 5 13 19 9 4 12 4 3 6 7 7 19 10 7 4 15 16 9 4 8 12 14 16 27 20 12 9 6 11
40 42 43 44 45 44 44 44 44 45 45 37 28 18 11 2 4 8 1 10 15 4 5 21 4 6 3 4 10 4 19 8 11 10 8 7 7 11 14 16 15 8 11 10 7 6 6
40 43 45 46 47 48 47 46 45 46 41 33 24 18 11 6 5 4 3 10 2 4 9 9 6 11 2 5 5 5 5 8 9 9 3 3 2 4 4 4 18 10 7 5 5 3 13
41 44 46 47 48 47 47 45 44 42 36 26 25 22 15 11 8 5 5 2 2 8 5 15 8 10 3 11 10 10 5 6 7 5 5 4 13 6 9 11 6 7 13 13 14 12 17
42 45 48 49 49 50 49 47 44 39 27 23 26 24 22 15 8 14 5 1 12 2 5 4 6 7 10 13 16 15 7 4 7 5 4 7 12 15 15 30 20 22 27 18 28 21 19
42 44 47 50 51 51 50 48 44 35 19 15 24 29 30 22 18 16 4 9 4 1 7 13 6 9 15 11 6 5 19 11 5 3 9 8 9 6 11 6 15 12 14 7 11 2 7
42 45 48 50 51 52 51 49 44 34 17 10 7 13 28 23 22 14 6 5 1 5 9 4 9 6 10 16 6 5 10 8 13 5 10 1 10 12 4 9 5 10 15 10 3 13 21
41 44 47 49 51 52 52 50 45 34 18 10 6 6 22 27 18 17 7 6 6 7 5 1 6 5 6 8 6 5 7 4 12 14 1 4 6 4 5 16 23 11 9 3 3 5 14
41 43 46 48 50 51 51 51 47 36 22 10 8 4 16 21 10 6 5 10 11 11 13 3 2 8 7 11 5 5 6 5 18 10 10 3 3 10 12 1 9 15 27 27 18 20 6
40 42 44 48 49 50 50 50 48 39 29 10 6 5 16 17 6 6 6 6 5 14 15 11 10 10 6 7 2 4 7 10 8 10 11 2 3 9 7 8 6 6 6 19 11 5 22
39 40 42 45 48 49 49 48 47 40 28 12 4 2 11 15 12 4 5 6 7 11 6 7 9 4 5 5 6 1 7 7 31 10 11 6 5 4 6 12 12 15 14 15 29 20 28
38 38 40 43 45 48 49 47 47 41 29 10 10 6 5 4 7 6 2 4 6 8 7 17 4 14 4 5 7 5 6 15 18 1 9 6 12 9 16 19 9 14 22 16 29 26 20
36 36 36 39 42 46 49 51 46 42 27 30 8 4 5 3 3 2 3 2 4 7 5 4 6 16 6 5 4 7 8 7 11 7 12 2 11 5 15 11 17 22 13 16 24 26 19
36 33 32 34 38 42 46 49 48 46 38 22 18 13 4 4 2 2 2 2 2 9 6 4 11 13 15 9 16 32 35 37 33 17 14 8 8 8 16 9 22 20 6 11 8 7 7
37 32 31 30 33 36 41 44 46 46 44 36 30 12 6 2 3 1 3 7 10 6 9 15 24 9 7 37 43 28 27 36 34 37 33 18 10 7 15 14 20 4 8 3 5 2 3
32 32 29 28 29 31 34 37 39 40 38 34 32 21 9 4 3 6 4 6 15 13 10 13 13 7 29 18 8 9 5 7 9 10 15 33 15 10 10 15 15 15 11 8 6 6 3
28 29 27 26 26 26 28 31 33 33 33 31 27 26 11 4 4 6 5 4 5 6 7 7 10 20 9 4 5 6 6 2 7 5 10 15 11 8 5 15 16 6 9 5 15 12 4
27 25 26 25 26 26 26 28 29 28 30 30 24 23 14 6 8 6 8 4 5 4 6 9 13 8 6 4 7 9 9 4 8 9 7 7 6 18 16 13 14 4 19 5 13 7 11
32 29 26 26 25 24 24 25 27 25 26 27 24 24 20 10 28 16 15 14 10 8 6 7 12 5 4 5 5 3 6 3 7 7 6 8 7 8 5 10 19 5 16 6 13 14 31
36 33 32 28 27 25 24 24 25 26 26 27 26 28 28 19 24 42 46 44 45 30 18 10 6 4 4 2 4 4 6 6 6 8 5 9 10 5 10 5 5 12 14 12 14 24 20
Wind_Direction_500mb
356 357 357 356 352 346 341 339 337 335 334 333 330 328 327 326 324 319 316 313 308 306 309 313 318 326 341 306 221 201 348 146 170 192 211 231 183 217 141 170 124 83 73 70 121 146 154
3 3 1 359 356 352 347 342 339 337 333 331 329 326 325 324 323 321 318 310 301 297 300 303 307 316 322 283 231 205 170 157 166 183 205 204 75 14 65 54 48 98 102 121 117 140 156
8 8 7 4 2 359 355 350 345 341 337 332 329 327 325 322 321 323 322 310 297 292 291 290 293 301 296 271 235 193 167 165 160 177 238 276 0 146 115 112 119 118 100 110 134 145 157
12 11 10 8 6 3 360 357 352 348 342 337 333 329 325 324 322 325 326 313 306 296 282 275 277 291 268 262 232 231 224 203 200 207 240 277 48 95 74 122 65 80 65 154 179 162 162
16 14 13 11 9 6 3 359 355 351 349 343 338 333 328 324 324 332 330 321 319 304 262 257 263 259 266 249 245 213 218 213 212 203 213 251 143 102 120 139 125 42 294 240 267 210 166
19 16 15 13 11 8 4 0 357 355 351 346 341 337 331 326 328 341 338 333 323 320 290 269 251 277 252 222 243 275 206 198 183 177 205 215 108 143 136 188 182 215 304 269 279 216 217
26 22 19 16 13 8 4 1 357 353 350 347 342 341 334 328 341 4 1 314 316 294 285 232 194 266 284 308 312 174 173 175 169 175 197 68 216 214 219 200 160 190 199 302 298 211 225
26 21 18 14 10 6 4 1 357 352 348 345 344 343 340 334 1 83 44 70 47 326 312 292 270 261 270 283 295 218 177 172 169 179 148 162 221 220 123 170 199 206 239 297 293 254 220
24 18 15 11 8 6 2 359 356 351 347 345 343 344 344 346 102 141 84 46 11 348 282 306 310 286 284 227 226 243 187 173 145 156 191 202 199 170 182 166 200 223 246 240 290 184 254
18 15 11 8 6 3 1 358 356 352 349 346 349 349 356 17 127 159 130 9 351 331 9 13 12 347 329 200 239 223 180 168 94 197 165 226 333 186 197 214 206 264 211 246 259 254 314
14 11 8 8 6 4 0 359 357 354 352 353 356 358 6 69 121 137 127 334 338 339 93 334 36 348 307 243 320 60 196 183 151 127 197 140 169 185 216 230 186 268 169 249 257 243 249
12 9 7 7 5 3 0 1 359 356 358 359 11 18 28 65 99 122 301 308 314 265 56 2 3 356 305 347 336 21 134 138 113 109 119 209 289 247 176 292 213 128 174 82 76 196 260
10 8 6 6 5 3 2 3 2 1 8 27 32 36 51 67 88 37 318 187 244 49 309 359 343 357 353 9 34 22 83 122 200 202 247 297 234 204 176 235 254 202 215 239 231 225 257
7 7 6 6 5 3 3 5 5 6 20 37 39 48 56 60 52 4 25 165 69 314 330 354 340 324 54 358 51 30 74 55 54 22 171 266 255 206 178 215 219 216 229 230 244 236 246
6 6 5 6 6 4 3 5 8 8 21 41 58 56 54 49 22 358 352 59 81 298 330 330 307 52 34 29 57 72 58 39 342 261 256 197 252 283 228 222 207 163 209 282 234 51 260
6 5 6 6 6 5 4 5 8 9 18 27 36 35 30 16 3 8 69 92 348 261 315 314 49 27 42 7 53 58 35 18 353 353 249 129 272 248 224 182 62 248 141 193 224 236 246
6 6 6 6 8 7 6 5 7 12 18 30 42 64 10 8 32 45 61 21 307 307 276 346 41 56 53 11 16 56 24 96 8 356 334 197 232 200 224 204 218 204 213 90 223 241 256
5 6 6 6 8 9 8 7 7 9 18 32 50 64 4 19 49 40 29 334 334 333 12 18 360 34 39 29 37 90 51 344 353 339 350 11 242 265 260 32 315 278 240 232 237 223 244
4 5 6 7 8 11 11 10 9 9 13 29 63 50 22 26 66 36 332 353 318 355 17 21 43 26 28 40 57 52 354 336 347 336 351 154 254 284 267 135 132 252 232 235 229 245 228
2 4 6 7 8 10 14 13 12 12 14 25 47 57 29 58 72 54 3 13 356 3 59 20 34 60 28 26 20 360 332 330 330 329 345 218 210 263 293 298 302 282 264 242 242 234 242
1 2 4 7 8 10 13 18 17 15 20 43 45 66 50 29 56 44 333 334 342 6 18 21 85 39 353 315 339 359 317 319 308 7 1 325 266 206 273 276 227 262 266 260 228 244 230
356 359 2 5 7 10 11 14 23 23 27 47 63 37 29 90 325 253 9 66 344 334 305 9 38 343 332 255 203 278 307 280 277 290 313 342 280 231 285 217 268 293 274 244 238 243 253
353 355 359 2 6 9 13 14 19 26 34 53 37 25 43 2 29 244 118 348 296 345 240 248 23 319 290 275 297 283 270 262 257 274 277 278 271 252 267 313 308 265 337 272 235 227 232
349 350 354 357 2 7 11 15 18 22 28 37 34 33 17 43 300 297 201 315 284 289 282 288 309 252 310 308 303 278 251 252 253 251 236 246 250 271 275 299 247 132 96 263 260 100 338
338 346 348 352 355 0 7 11 14 18 22 22 27 31 18 317 277 287 219 258 295 292 260 273 291 287 312 305 280 289 248 245 226 223 229 222 216 242 251 236 298 270 190 174 236 205 332
326 337 340 345 349 350 356 4 8 10 12 14 17 18 11 333 194 275 294 285 306 303 296 258 298 313 315 270 250 255 255 274 262 257 67 161 209 235 200 238 260 325 45 50 145 235 84
322 320 330 335 342 344 345 350 358 1 3 4 6 7 4 298 269 235 237 264 207 218 268 296 338 324 353 220 230 240 248 284 245 232 205 194 182 219 224 247 254 347 340 354 199 52 1
316 315 312 318 326 333 337 341 347 353 356 356 351 351 353 290 287 255 234 229 230 209 260 323 299 200 255 230 250 239 250 230 270 266 255 246 237 217 191 228 251 24 119 216 321 20 313
304 317 310 302 306 317 324 330 335 341 346 346 343 337 330 291 273 289 281 267 253 255 259 242 289 288 269 228 223 283 258 246 268 258 182 247 229 272 229 262 16 337 321 305 297 281 314
Wind_Speed_850mb
28 28 27 26 25 25 26 27 28 30 30 29 29 28 28 28 27 26 26 26 27 27 25 24 24 23 18 6 8 10 3 10 21 13 8 2 1 1 3 3 11 8 7 15 20 16 20
26 26 27 27 27 27 27 28 29 29 30 31 30 29 29 29 28 27 26 26 27 27 25 23 22 22 17 8 7 8 11 12 16 14 7 4 0 3 6 7 7 13 25 26 18 21 20
26 26 27 28 29 29 29 29 30 31 30 30 30 31 29 28 28 27 25 26 26 26 24 22 20 20 22 22 7 10 13 11 9 9 8 2 4 1 6 10 10 11 17 16 8 12 8
26 28 29 30 31 31 32 32 31 31 31 32 30 29 30 29 27 26 25 25 24 21 20 19 17 18 15 11 10 17 17 15 12 9 7 6 4 11 6 16 8 6 2 2 9 8 17
27 28 29 31 33 34 34 34 34 34 33 33 32 30 28 27 26 24 21 24 16 9 12 15 13 9 14 10 10 14 20 22 17 12 8 9 5 10 9 13 8 3 5 6 5 19 11
28 30 31 33 34 35 36 37 37 37 36 35 32 29 27 24 21 19 17 14 8 5 3 8 15 8 12 2 4 6 16 22 18 12 5 5 6 7 6 9 6 9 6 5 12 10 22
30 31 33 33 34 36 37 38 39 40 40 37 34 29 24 20 15 12 12 7 7 5 9 10 4 12 18 7 11 6 14 24 20 13 11 2 11 19 25 15 8 7 3 11 16 10 15
34 35 37 37 38 38 38 39 40 42 42 40 35 29 21 16 7 6 13 10 13 10 13 16 23 37 42 38 12 2 14 15 12 13 9 8 24 20 11 15 9 7 5 6 12 3 15
35 36 37 38 38 39 39 40 41 43 44 41 35 26 18 11 4 9 9 14 16 13 4 11 9 10 9 12 12 8 11 12 7 14 21 21 9 9 15 15 14 11 10 5 10 1 12
38 39 40 41 41 42 42 43 43 45 46 42 31 21 13 6 7 7 5 13 19 9 4 12 4 3 6 7 7 19 10 7 4 15 16 9 4 8 12 14 16 27 20 12 9 6 11
40 42 43 44 45 44 44 44 44 45 45 37 28 18 11 2 4 8 1 10 15 4 5 21 4 6 3 4 10 4 19 8 11 10 8 7 7 11 14 16 15 8 11 10 7 6 6
40 43 45 46 47 48 47 46 45 46 41 33 24 18 11 6 5 4 3 10 2 4 9 9 6 11 2 5 5 5 5 8 9 9 3 3 2 4 4 4 18 10 7 5 5 3 13
41 44 46 47 48 47 47 45 44 42 36 26 25 22 15 11 8 5 5 2 2 8 5 15 8 10 3 11 10 10 5 6 7 5 5 4 13 6 9 11 6 7 13 13 14 12 17
42 45 48 49 49 50 49 47 44 39 27 23 26 24 22 15 8 14 5 1 12 2 5 4 6 7 10 13 16 15 7 4 7 5 4 7 12 15 15 30 20 22 27 18 28 21 19
42 44 47 50 51 51 50 48 44 35 19 15 24 29 30 22 18 16 4 9 4 1 7 13 6 9 15 11 6 5 19 11 5 3 9 8 9 6 11 6 15 12 14 7 11 2 7
42 45 48 50 51 52 51 49 44 34 17 10 7 13 28 23 22 14 6 5 1 5 9 4 9 6 10 16 6 5 10 8 13 5 10 1 10 12 4 9 5 10 15 10 3 13 21
41 44 47 49 51 52 52 50 45 34 18 10 6 6 22 27 18 17 7 6 6 7 5 1 6 5 6 8 6 5 7 4 12 14 1 4 6 4 5 16 23 11 9 3 3 5 14
41 43 46 48 50 51 51 51 47 36 22 10 8 4 16 21 10 6 5 10 11 11 13 3 2 8 7 11 5 5 6 5 18 10 10 3 3 10 12 1 9 15 27 27 18 20 6
40 42 44 48 49 50 50 50 48 39 29 10 6 5 16 17 6 6 6 6 5 14 15 11 10 10 6 7 2 4 7 10 8 10 11 2 3 9 7 8 6 6 6 19 11 5 22
39 40 42 45 48 49 49 48 47 40 28 12 4 2 11 15 12 4 5 6 7 11 6 7 9 4 5 5 6 1 7 7 31 10 11 6 5 4 6 12 12 15 14 15 29 20 28
38 38 40 43 45 48 49 47 47 41 29 10 10 6 5 4 7 6 2 4 6 8 7 17 4 14 4 5 7 5 6 15 18 1 9 6 12 9 16 19 9 14 22 16 29 26 20
36 36 36 39 42 46 49 51 46 42 27 30 8 4 5 3 3 2 3 2 4 7 5 4 6 16 6 5 4 7 8 7 11 7 12 2 11 5 15 11 17 22 13 16 24 26 19
36 33 32 34 38 42 46 49 48 46 38 22 18 13 4 4 2 2 2 2 2 9 6 4 11 13 15 9 16 32 35 37 33 17 14 8 8 8 16 9 22 20 6 11 8 7 7
37 32 31 30 33 36 41 44 46 46 44 36 30 12 6 2 3 1 3 7 10 6 9 15 24 9 7 37 43 28 27 36 34 37 33 18 10 7 15 14 20 4 8 3 5 2 3
32 32 29 28 29 31 34 37 39 40 38 34 32 21 9 4 3 6 4 6 15 13 10 13 13 7 29 18 8 9 5 7 9 10 15 33 15 10 10 15 15 15 11 8 6 6 3
28 29 27 26 26 26 28 31 33 33 33 31 27 26 11 4 4 6 5 4 5 6 7 7 10 20 9 4 5 6 6 2 7 5 10 15 11 8 5 15 16 6 9 5 15 12 4
27 25 26 25 26 26 26 28 29 28 30 30 24 23 14 6 8 6 8 4 5 4 6 9 13 8 6 4 7 9 9 4 8 9 7 7 6 18 16 13 14 4 19 5 13 7 11
32 29 26 26 25 24 24 25 27 25 26 27 24 24 20 10 28 16 15 14 10 8 6 7 12 5 4 5 5 3 6 3 7 7 6 8 7 8 5 10 19 5 16 6 13 14 31
36 33 32 28 27 25 24 24 25 26 26 27 26 28 28 19 24 42 46 44 45 30 18 10 6 4 4 2 4 4 6 6 6 8 5 9 10 5 10 5 5 12 14 12 14 24 20
Wind_Direction_850mb
356 357 357 356 352 346 341 339 337 335 334 333 330 328 327 326 324 319 316 313 308 306 309 313 318 326 341 306 221 201 348 146 170 192 211 231 183 217 141 170 124 83 73 70 121 146 154
3 3 1 359 356 352 347 342 339 337 333 331 329 326 325 324 323 321 318 310 301 297 300 303 307 316 322 283 231 205 170 157 166 183 205 204 75 14 65 54 48 98 102 121 117 140 156
8 8 7 4 2 359 355 350 345 341 337 332 329 327 325 322 321 323 322 310 297 292 291 290 293 301 296 271 235 193 167 165 160 177 238 276 0 146 115 112 119 118 100 110 134 145 157
12 11 10 8 6 3 360 357 352 348 342 337 333 329 325 324 322 325 326 313 306 296 282 275 277 291 268 262 232 231 224 203 200 207 240 277 48 95 74 122 65 80 65 154 179 162 162
16 14 13 11 9 6 3 359 355 351 349 343 338 333 328 324 324 332 330 321 319 304 262 257 263 259 266 249 245 213 218 213 212 203 213 251 143 102 120 139 125 42 294 240 267 210 166
19 16 15 13 11 8 4 0 357 355 351 346 341 337 331 326 328 341 338 333 323 320 290 269 251 277 252 222 243 275 206 198 183 177 205 215 108 143 136 188 182 215 304 269 279 216 217
26 22 19 16 13 8 4 1 357 353 350 347 342 341 334 328 341 4 1 314 316 294 285 232 194 266 284 308 312 174 173 175 169 175 197 68 216 214 219 200 160 190 199 302 298 211 225
26 21 18 14 10 6 4 1 357 352 348 345 344 343 340 334 1 83 44 70 47 326 312 292 270 261 270 283 295 218 177 172 169 179 148 162 221 220 123 170 199 206 239 297 293 254 220
24 18 15 11 8 6 2 359 356 351 347 345 343 344 344 346 102 141 84 46 11 348 282 306 310 286 284 227 226 243 187 173 145 156 191 202 199 170 182 166 200 223 246 240 290 184 254
18 15 11 8 6 3 1 358 356 352 349 346 349 349 356 17 127 159 130 9 351 331 9 13 12 347 329 200 239 223 180 168 94 197 165 226 333 186 197 214 206 264 211 246 259 254 314
14 11 8 8 6 4 0 359 357 354 352 353 356 358 6 69 121 137 127 334 338 339 93 334 36 348 307 243 320 60 196 183 151 127 197 140 169 185 216 230 186 268 169 249 257 243 249
12 9 7 7 5 3 0 1 359 356 358 359 11 18 28 65 99 122 301 308 314 265 56 2 3 356 305 347 336 21 134 138 113 109 119 209 289 247 176 292 213 128 174 82 76 196 260
10 8 6 6 5 3 2 3 2 1 8 27 32 36 51 67 88 37 318 187 244 49 309 359 343 357 353 9 34 22 83 122 200 202 247 297 234 204 176 235 254 202 215 239 231 225 257
7 7 6 6 5 3 3 5 5 6 20 37 39 48 56 60 52 4 25 165 69 314 330 354 340 324 54 358 51 30 74 55 54 22 171 266 255 206 178 215 219 216 229 230 244 236 246
6 6 5 6 6 4 3 5 8 8 21 41 58 56 54 49 22 358 352 59 81 298 330 330 307 52 34 29 57 72 58 39 342 261 256 197 252 283 228 222 207 163 209 282 234 51 260
6 5 6 6 6 5 4 5 8 9 18 27 36 35 30 16 3 8 69 92 348 261 315 314 49 27 42 7 53 58 35 18 353 353 249 129 272 248 224 182 62 248 141 193 224 236 246
6 6 6 6 8 7 6 5 7 12 18 30 42 64 10 8 32 45 61 21 307 307 276 346 41 56 53 11 16 56 24 96 8 356 334 197 232 200 224 204 218 204 213 90 223 241 256
5 6 6 6 8 9 8 7 7 9 18 32 50 64 4 19 49 40 29 334 334 333 12 18 360 34 39 29 37 90 51 344 353 339 350 11 242 265 260 32 315 278 240 232 237 223 244
4 5 6 7 8 11 11 10 9 9 13 29 63 50 22 26 66 36 332 353 318 355 17 21 43 26 28 40 57 52 354 336 347 336 351 154 254 284 267 135 132 252 232 235 229 245 228
2 4 6 7 8 10 14 13 12 12 14 25 47 57 29 58 72 54 3 13 356 3 59 20 34 60 28 26 20 360 332 330 330 329 345 218 210 263 293 298 302 282 264 242 242 234 242
1 2 4 7 8 10 13 18 17 15 20 43 45 66 50 29 56 44 333 334 342 6 18 21 85 39 353 315 339 359 317 319 308 7 1 325 266 206 273 276 227 262 266 260 228 244 230
356 359 2 5 7 10 11 14 23 23 27 47 63 37 29 90 325 253 9 66 344 334 305 9 38 343 332 255 203 278 307 280 277 290 313 342 280 231 285 217 268 293 274 244 238 243 253
353 355 359 2 6 9 13 14 19 26 34 53 37 25 43 2 29 244 118 348 296 345 240 248 23 319 290 275 297 283 270 262 257 274 277 278 271 252 267 313 308 265 337 272 235 227 232
349 350 354 357 2 7 11 15 18 22 28 37 34 33 17 43 300 297 201 315 284 289 282 288 309 252 310 308 303 278 251 252 253 251 236 246 250 271 275 299 247 132 96 263 260 100 338
338 346 348 352 355 0 7 11 14 18 22 22 27 31 18 317 277 287 219 258 295 292 260 273 291 287 312 305 280 289 248 245 226 223 229 222 216 242 251 236 298 270 190 174 236 205 332
326 337 340 345 349 350 356 4 8 10 12 14 17 18 11 333 194 275 294 285 306 303 296 258 298 313 315 270 250 255 255 274 262 257 67 161 209 235 200 238 260 325 45 50 145 235 84
322 320 330 335 342 344 345 350 358 1 3 4 6 7 4 298 269 235 237 264 207 218 268 296 338 324 353 220 230 240 248 284 245 232 205 194 182 219 224 247 254 347 340 354 199 52 1
316 315 312 318 326 333 337 341 347 353 356 356 351 351 353 290 287 255 234 229 230 209 260 323 299 200 255 230 250 239 250 230 270 266 255 246 237 217 191 228 251 24 119 216 321 20 313
304 317 310 302 306 317 324 330 335 341 346 346 343 337 330 291 273 289 281 267 253 255 259 242 289 288 269 228 223 283 258 246 268 258 182 247 229 272 229 262 16 337 321 305 297 281 314